Regional Weather Roundup
Issued by NWS Little Rock, AR

Home | Current Version | Previous Version | Graphics & Text | Print | Product List | Glossary On
Versions: 1 2 3 4 5 6 7 8 9 10 11 12 13 14 15 16 17 18 19 20 21 22 23 24 25 26 27 28 29 30 31 32 33 34 35 36 37 38 39 40 41 42 43 44 45 46 47 48 49 50
000
ASUS44 KLZK 220705
RWRLZK

WEATHER ROUNDUP FOR ARKANSAS
NATIONAL WEATHER SERVICE LITTLE ROCK AR
200 AM CDT WED MAR 22 2017

NOTE: "FAIR" INDICATES FEW OR NO CLOUDS BELOW 12,000 FEET WITH NO
SIGNIFICANT WEATHER AND/OR OBSTRUCTIONS TO VISIBILITY.

ARZ001-003-010-029-220800-
NORTHWEST ARKANSAS

CITY           SKY/WX    TMP DP  RH WIND       PRES   REMARKS
FAYETTEVILLE   CLOUDY    52  42  69 NE14G21   30.17S
FORT SMITH     PTCLDY    62  50  64 E16G25    30.11R
HARRISON       TSTM      48  44  86 E10       30.25R
BENTONVILLE    CLOUDY    50  43  76 NE9       30.21R THUNDER
ROGERS         RAIN      48  45  87 E21G29    30.19R
SILOAM SPGS    CLOUDY    52  39  62 E12G22    30.17R
HIGHFILL       CLOUDY    52  42  69 NE17G24   30.19R THUNDER
$$

ARZ004-005-016-220800-
NORTH CENTRAL ARKANSAS

CITY           SKY/WX    TMP DP  RH WIND       PRES   REMARKS
BATESVILLE     CLOUDY    54  41  62 N14G22    30.26R
FLIPPIN        CLOUDY    48  41  76 NE6       30.26R
MTN HOME       TSTM      46  43  89 E8        30.25S
$$

ARZ040-041-220800-
WEST CENTRAL ARKANSAS

CITY           SKY/WX    TMP DP  RH WIND       PRES   REMARKS
MENA           CLEAR     64  61  88 E12       30.13R
MOUNT IDA      PTCLDY    60  54  80 VRB5      30.12R
$$

ARZ009-017-025-026-028-220800-
NORTHEAST ARKANSAS

CITY           SKY/WX    TMP DP  RH WIND       PRES   REMARKS
CORNING        CLOUDY    48  48 100 NE6       30.25S THUNDER
JONESBORO      LGT RAIN  49  44  83 NE16G25   30.22R
NEWPORT        CLOUDY    52  45  77 MISG      30.21R
WALNUT RIDGE   CLOUDY    48  43  81 NE8       30.26R THUNDER
BLYTHEVILLE    RAIN      49  45  86 NE16G25   30.23R
$$

ARZ022-023-033-042-044-220800-
CENTRAL ARKANSAS

CITY           SKY/WX    TMP DP  RH WIND       PRES   REMARKS
LITTLE ROCK    MOCLDY    56  46  69 NE8       30.18R
N LITTLE ROCK    N/A     55  45  68 NE8       30.17R
JACKSONVILLE   CLEAR     57  44  62 NE16      30.17R
CONWAY           N/A     59  43  55 NE15      30.17F
SEARCY         PTCLDY    55  44  66 NE18G24   30.20R
HOT SPRINGS    CLEAR     58  49  72 E14G23    30.14F
RUSSELLVILLE   CLEAR     58  42  55 E8        30.18R
CLINTON        CLOUDY    57  41  54 VRB6G17   30.21R
$$

ARZ036-220800-
EAST ARKANSAS

CITY           SKY/WX    TMP DP  RH WIND       PRES   REMARKS
WEST MEMPHIS   PTCLDY    53  49  86 N13       30.16R
$$

ARZ050-053-066-070-073-220800-
SOUTHWEST ARKANSAS

CITY           SKY/WX    TMP DP  RH WIND       PRES   REMARKS
ARKADELPHIA    CLOUDY    60  54  80 NE9       30.14R
CAMDEN         CLEAR     59  52  77 N10       30.12R
TEXARKANA      CLEAR     63  52  67 S3        30.08R
EL DORADO      CLEAR     57  52  83 CALM      30.08R
DE QUEEN       CLEAR     57  57 100 CALM      30.06R
$$

ARZ056-057-069-220800-
SOUTHEAST ARKANSAS

CITY           SKY/WX    TMP DP  RH WIND       PRES   REMARKS
PINE BLUFF     CLEAR     56  49  77 N10       30.16R
STUTTGART      CLEAR     55  41  58 N14       30.17R
MONTICELLO       N/A     59  53  80 MISG      30.11R

$$





USA.gov is the U.S. government's official web portal to all federal, state and local government web resources and services.